• In Latvia
  • List of Countries
  • For 7 days
  • Water Temperature
  • Satellite Maps
  • Weather Map
  • Weather Widgets
  • user-avatar
    Login

    Hourly Weather Khartsyzk

    Today, 21 August, Tuesday

    Time Temperature Precipitation Wind Pressure Humidity
    00:00 +19°C° 0 mm 2 mps 744 mmHg 35%
    01:00 +19°C° 0 mm 2 mps 744 mmHg 36%
    02:00 +18°C° 0 mm 2 mps 744 mmHg 36%
    03:00 +19°C° 0 mm 1 mps 744 mmHg 36%
    04:00 +18°C° 0 mm 1 mps 744 mmHg 37%
    05:00 +17°C° 0 mm 2 mps 744 mmHg 37%
    06:00 +17°C° 0 mm 2 mps 744 mmHg 38%
    07:00 +19°C° 0 mm 2 mps 744 mmHg 34%
    08:00 +23°C° 0 mm 2 mps 744 mmHg 31%
    09:00 +25°C° 0 mm 2 mps 744 mmHg 27%
    10:00 +27°C° 0 mm 3 mps 744 mmHg 25%
    11:00 +28°C° 0 mm 3 mps 744 mmHg 22%
    12:00 +30°C° 0 mm 3 mps 744 mmHg 20%
    13:00 +30°C° 0 mm 2 mps 743 mmHg 19%
    14:00 +31°C° 0 mm 2 mps 743 mmHg 18%
    15:00 +32°C° 0 mm 2 mps 743 mmHg 17%
    16:00 +31°C° 0 mm 2 mps 742 mmHg 18%
    17:00 +31°C° 0 mm 1 mps 742 mmHg 19%
    18:00 +31°C° 0 mm 1 mps 742 mmHg 20%
    19:00 +28°C° 0 mm 1 mps 742 mmHg 22%
    20:00 +24°C° 0 mm 0 mps 742 mmHg 25%
    21:00 +22°C° 0 mm 0 mps 742 mmHg 27%
    22:00 +21°C° 0 mm 0 mps 742 mmHg 28%
    23:00 +21°C° 0 mm 0 mps 742 mmHg 29%

    Tomorrow, 22 August, Wednesday

    Time Temperature Precipitation Wind Pressure Humidity
    00:00 +20°C° 0 mm 0 mps 742 mmHg 29%
    01:00 +22°C° 0 mm 1 mps 742 mmHg 30%
    02:00 +22°C° 0 mm 1 mps 742 mmHg 31%
    03:00 +21°C° 0 mm 1 mps 742 mmHg 31%
    04:00 +21°C° 0 mm 1 mps 742 mmHg 32%
    05:00 +21°C° 0 mm 1 mps 742 mmHg 33%
    06:00 +20°C° 0 mm 1 mps 742 mmHg 33%
    07:00 +23°C° 0 mm 2 mps 742 mmHg 32%
    08:00 +25°C° 0 mm 2 mps 742 mmHg 30%
    09:00 +27°C° 0 mm 3 mps 742 mmHg 29%
    10:00 +29°C° 0 mm 3 mps 743 mmHg 31%
    11:00 +30°C° 0 mm 3 mps 743 mmHg 33%
    12:00 +32°C° 0 mm 4 mps 743 mmHg 35%
    13:00 +32°C° 0 mm 4 mps 743 mmHg 36%
    14:00 +32°C° 0 mm 4 mps 743 mmHg 36%
    15:00 +32°C° 0 mm 5 mps 743 mmHg 37%
    16:00 +30°C° 0 mm 5 mps 743 mmHg 37%
    17:00 +30°C° 0 mm 5 mps 743 mmHg 36%
    18:00 +29°C° 0 mm 5 mps 743 mmHg 36%
    19:00 +27°C° 0 mm 5 mps 744 mmHg 39%
    20:00 +26°C° 0 mm 5 mps 744 mmHg 42%
    21:00 +23°C° 0 mm 5 mps 744 mmHg 46%
    22:00 +22°C° 0 mm 5 mps 745 mmHg 46%
    23:00 +21°C° 0 mm 5 mps 745 mmHg 47%

    Day after tomorrow, 23 August, Thursday

    Time Temperature Precipitation Wind Pressure Humidity
    00:00 +20°C° 0 mm 4 mps 746 mmHg 47%
    01:00 +19°C° 0 mm 4 mps 746 mmHg 49%
    02:00 +18°C° 0 mm 4 mps 746 mmHg 50%
    03:00 +18°C° 0 mm 4 mps 746 mmHg 52%
    04:00 +17°C° 0 mm 4 mps 746 mmHg 53%
    05:00 +15°C° 0 mm 4 mps 747 mmHg 55%
    06:00 +16°C° 0 mm 3 mps 747 mmHg 56%
    07:00 +18°C° 0 mm 4 mps 747 mmHg 50%
    08:00 +20°C° 0 mm 4 mps 747 mmHg 45%
    09:00 +21°C° 0 mm 5 mps 748 mmHg 39%
    10:00 +23°C° 0 mm 5 mps 748 mmHg 35%
    11:00 +25°C° 0 mm 5 mps 748 mmHg 31%
    12:00 +26°C° 0 mm 5 mps 748 mmHg 27%
    13:00 +27°C° 0 mm 5 mps 747 mmHg 25%
    14:00 +27°C° 0 mm 5 mps 747 mmHg 23%
    15:00 +28°C° 0 mm 5 mps 747 mmHg 22%
    16:00 +27°C° 0 mm 4 mps 747 mmHg 22%
    17:00 +27°C° 0 mm 4 mps 746 mmHg 23%
    18:00 +26°C° 0 mm 4 mps 746 mmHg 24%
    19:00 +25°C° 0 mm 4 mps 746 mmHg 27%
    20:00 +22°C° 0 mm 4 mps 747 mmHg 30%
    21:00 +20°C° 0 mm 3 mps 747 mmHg 33%
    22:00 +19°C° 0 mm 3 mps 747 mmHg 34%
    23:00 +19°C° 0 mm 3 mps 747 mmHg 36%

    24 August, Friday

    Time Temperature Precipitation Wind Pressure Humidity
    00:00 +18°C° 0 mm 4 mps 747 mmHg 38%
    01:00 +18°C° 0 mm 4 mps 747 mmHg 40%
    02:00 +17°C° 0 mm 4 mps 747 mmHg 41%
    03:00 +17°C° 0 mm 4 mps 746 mmHg 43%
    04:00 +15°C° 0 mm 4 mps 746 mmHg 44%
    05:00 +15°C° 0 mm 4 mps 746 mmHg 45%
    06:00 +15°C° 0 mm 4 mps 746 mmHg 46%
    07:00 +17°C° 0 mm 5 mps 746 mmHg 41%
    08:00 +20°C° 0 mm 5 mps 747 mmHg 36%
    09:00 +23°C° 0 mm 6 mps 747 mmHg 31%
    10:00 +24°C° 0 mm 6 mps 746 mmHg 29%
    11:00 +26°C° 0 mm 6 mps 746 mmHg 27%
    12:00 +27°C° 0 mm 6 mps 746 mmHg 24%
    13:00 +28°C° 0 mm 6 mps 746 mmHg 24%
    14:00 +28°C° 0 mm 6 mps 745 mmHg 23%
    15:00 +29°C° 0 mm 5 mps 745 mmHg 22%
    16:00 +28°C° 0 mm 5 mps 745 mmHg 23%
    17:00 +28°C° 0 mm 5 mps 745 mmHg 24%
    18:00 +27°C° 0 mm 5 mps 744 mmHg 25%
    19:00 +26°C° 0 mm 5 mps 744 mmHg 28%
    20:00 +23°C° 0 mm 4 mps 745 mmHg 31%
    21:00 +21°C° 0 mm 4 mps 745 mmHg 33%
    22:00 +20°C° 0 mm 4 mps 745 mmHg 34%
    23:00 +20°C° 0 mm 4 mps 744 mmHg 35%

    25 August, Saturday

    Time Temperature Precipitation Wind Pressure Humidity
    00:00 +19°C° 0 mm 4 mps 744 mmHg 36%
    01:00 +18°C° 0 mm 4 mps 744 mmHg 37%
    02:00 +18°C° 0 mm 4 mps 744 mmHg 38%
    03:00 +17°C° 0 mm 4 mps 744 mmHg 39%
    04:00 +17°C° 0 mm 4 mps 744 mmHg 39%
    05:00 +17°C° 0 mm 4 mps 744 mmHg 40%
    06:00 +15°C° 0 mm 4 mps 744 mmHg 41%
    07:00 +19°C° 0 mm 5 mps 744 mmHg 38%
    08:00 +21°C° 0 mm 6 mps 744 mmHg 34%
    09:00 +23°C° 0 mm 6 mps 744 mmHg 31%
    10:00 +26°C° 0 mm 6 mps 744 mmHg 28%
    11:00 +27°C° 0 mm 6 mps 744 mmHg 26%
    12:00 +28°C° 0 mm 7 mps 744 mmHg 24%
    13:00 +29°C° 0 mm 7 mps 743 mmHg 23%
    14:00 +29°C° 0 mm 6 mps 743 mmHg 22%
    15:00 +30°C° 0 mm 6 mps 743 mmHg 21%
    16:00 +30°C° 0 mm 6 mps 742 mmHg 20%
    17:00 +29°C° 0 mm 6 mps 742 mmHg 20%
    18:00 +29°C° 0 mm 5 mps 742 mmHg 20%
    19:00 +27°C° 0 mm 5 mps 742 mmHg 22%
    20:00 +25°C° 0 mm 5 mps 742 mmHg 24%
    21:00 +22°C° 0 mm 4 mps 742 mmHg 26%
    22:00 +22°C° 0 mm 4 mps 742 mmHg 28%
    23:00 +21°C° 0 mm 4 mps 742 mmHg 30%

    26 August, Sunday

    Time Temperature Precipitation Wind Pressure Humidity
    00:00 +21°C° 0 mm 4 mps 742 mmHg 31%
    01:00 +20°C° 0 mm 4 mps 742 mmHg 33%
    02:00 +20°C° 0 mm 4 mps 741 mmHg 35%
    03:00 +20°C° 0 mm 4 mps 741 mmHg 37%
    04:00 +19°C° 0 mm 5 mps 741 mmHg 38%
    05:00 +19°C° 0 mm 5 mps 741 mmHg 40%
    06:00 +19°C° 0 mm 5 mps 741 mmHg 41%
    07:00 +21°C° 0 mm 6 mps 742 mmHg 38%
    08:00 +23°C° 0 mm 8 mps 742 mmHg 35%
    09:00 +26°C° 0 mm 9 mps 742 mmHg 32%
    10:00 +27°C° 0 mm 9 mps 741 mmHg 30%
    11:00 +29°C° 0 mm 9 mps 741 mmHg 28%
    12:00 +31°C° 0 mm 9 mps 741 mmHg 26%
    13:00 +31°C° 0 mm 8 mps 741 mmHg 26%
    14:00 +32°C° 0 mm 8 mps 740 mmHg 25%
    15:00 +33°C° 0 mm 8 mps 740 mmHg 24%
    16:00 +32°C° 0 mm 8 mps 740 mmHg 26%
    17:00 +30°C° 0 mm 7 mps 740 mmHg 27%
    18:00 +30°C° 0 mm 6 mps 740 mmHg 28%
    19:00 +29°C° 0 mm 6 mps 740 mmHg 30%
    20:00 +28°C° 0 mm 6 mps 740 mmHg 32%
    21:00 +26°C° 0 mm 6 mps 740 mmHg 33%
    22:00 +26°C° 0 mm 6 mps 740 mmHg 34%
    23:00 +25°C° 0 mm 5 mps 740 mmHg 34%
    Show more